Airfield :
LOGIN :

Register | Disclaimer

   EN    FR    IT 

 










Legend :    VFR   Marginal VFR   IFR   Intensive IFR   Very Intensive IFR
Visi :
Ceiling :
>= 8 km
>= 3000ft
5 to 8 km
1000 to 3000 ft
1500m to 5 km
500 to 1000 ft
800 to 1500m
200 to 500 ft
< 800m
< 200 ft
Symbols :   Thunderstorms  Fog  Heavy snow  Heavy precipitations  Wind > 20 kt
SIGMETs :     Misc.  Thunderstorms  Icing  Turbulence  Mountain Waves  Volcanic Ashes







- Airport Elevation : 1187 ft


LIBV - Gioia del Colle Bari

CURRENT METAR :
  • 160655Z 22003KT CAVOK 00/M05 Q1021 RMK FEW FEW200 VIS MIN 9999 WIND THR32 22005KT WIND THR14 24003KT BLU

EXPIRED METARs :
  • 160555Z 20002KT CAVOK 00/M05 Q1020 RMK SKC VIS MIN 9999 WIND THR32 21004KT WIND THR14 VRB02KT BLU
  • 160455Z VRB01KT CAVOK 01/M04 Q1020 RMK SKC VIS MIN 9999 WIND THR32 26004KT WIND THR14 27002KT BLU

TAF TAF LIBV
Valid from the 16 at 06:00 until the 16 at 15:00 UTC


160500Z 1606/1615 27006KT CAVOK
BECMG 1608/1610 21007KT
No reported NOTAMs for that airfield.



MET'MAP, your aeronautical weather chart ! - Copyright ORBIFLY December 2007 - Disclaimer

ORBIFLY MET'MAP TEAM :

Programming & Development : Alexandra Zaïnal
Concept & Development : Baudouin d'Aumeries
Co-Development & Prog : Marc-Olivier Méhu
Technical & hardware support : Manuel Goepfert

Contact : metmap@orbifly.com




SOURCES & CREDITS :

   NOAA